WetterOnline ( http://www.wetteronline.de )

Wetter aktuell Warburg

Aktuelles Wetter: Warburg (237m)

6-stündlich | Neueste Meldungen
Ortszeit Temperatur Wetter
So, 19.08. 20:00 25.0° C leicht bewölkt
So, 19.08. 14:00 27.5° C fast wolkenlos
So, 19.08. 8:00 13.3° C leicht bewölkt
So, 19.08. 2:00 14.2° C wolkig
Sa, 18.08. 20:00 23.0° C leicht bewölkt
Sa, 18.08. 14:00 23.9° C wolkig
Sa, 18.08. 8:00 13.0° C fast wolkenlos
Sa, 18.08. 2:00 14.8° C leicht bewölkt
Ortszeit Temperatur Wetter
So, 19.08. 22:30 20.4° C bedeckt
So, 19.08. 22:20 20.4° C bedeckt
So, 19.08. 22:10 20.7° C fast wolkenlos
So, 19.08. 22:00 21.1° C fast wolkenlos
So, 19.08. 21:50 21.1° C fast wolkenlos
So, 19.08. 21:40 21.4° C fast wolkenlos
So, 19.08. 21:30 21.3° C fast wolkenlos
So, 19.08. 21:00 21.9° C wolkenlos
So, 19.08. 20:30 23.7° C wolkenlos
So, 19.08. 20:00 25.0° C leicht bewölkt
So, 19.08. 19:30 26.4° C fast wolkenlos
Ortszeit Relative Feuchte Sichtweite
So, 19.08. 20:00 42% 50 km
So, 19.08. 14:00 32% 29 km
So, 19.08. 8:00 75% 22 km
So, 19.08. 2:00 73% 35 km
Sa, 18.08. 20:00 40% 45 km
Sa, 18.08. 14:00 34% 27 km
Sa, 18.08. 8:00 88% 17 km
Sa, 18.08. 2:00 84% 29 km
Ortszeit Relative Feuchte Sichtweite
So, 19.08. 22:30 54% 40 km
So, 19.08. 22:20 54% -
So, 19.08. 22:10 53% -
So, 19.08. 22:00 52% 40 km
So, 19.08. 21:50 52% -
So, 19.08. 21:40 51% -
So, 19.08. 21:30 52% 40 km
So, 19.08. 21:00 49% 45 km
So, 19.08. 20:30 45% 40 km
So, 19.08. 20:00 42% 50 km
So, 19.08. 19:30 38% 40 km
Ortszeit Niederschlagsmenge Niederschlagsart
So, 19.08. 20:00 0.0 l/m2 in 12 Std. -
So, 19.08. 14:00 0.0 l/m2 in 6 Std. -
So, 19.08. 8:00 0.0 l/m2 in 12 Std. -
So, 19.08. 2:00 0.0 l/m2 in 6 Std. -
Sa, 18.08. 20:00 0.0 l/m2 in 12 Std. -
Sa, 18.08. 14:00 0.0 l/m2 in 6 Std. -
Sa, 18.08. 8:00 0.0 l/m2 in 12 Std. -
Sa, 18.08. 2:00 0.0 l/m2 in 6 Std. -
Ortszeit Niederschlagsmenge Niederschlagsart
So, 19.08. 22:30 0.0 l/m2 in 1 Std. -
So, 19.08. 22:20 keine Meldung -
So, 19.08. 22:10 keine Meldung -
So, 19.08. 22:00 0.0 l/m2 in 1 Std. -
So, 19.08. 21:50 keine Meldung -
So, 19.08. 21:40 keine Meldung -
So, 19.08. 21:30 0.0 l/m2 in 1 Std. -
So, 19.08. 21:00 0.0 l/m2 in 1 Std. -
So, 19.08. 20:30 0.0 l/m2 in 1 Std. -
So, 19.08. 20:00 0.0 l/m2 in 1 Std. -
So, 19.08. 19:30 0.0 l/m2 in 1 Std. -
Ortszeit Stärke Spitze Richtung
km/h Bft. km/h Grad Sektor
So, 19.08. 20:00 13 3 41 310° NW
So, 19.08. 14:00 11 2 32 230° SW
So, 19.08. 8:00 4 1 14 250° W
So, 19.08. 2:00 13 3 20 300° NW
Sa, 18.08. 20:00 14 3 29 320° NW
Sa, 18.08. 14:00 11 2 25 340° N
Sa, 18.08. 8:00 4 1 14 180° S
Sa, 18.08. 2:00 11 2 32 300° NW
Ortszeit Stärke Spitze Richtung
km/h Bft. km/h Grad Sektor
So, 19.08. 22:30 11 2 14 290° W
So, 19.08. 22:20 11 2 - 290° W
So, 19.08. 22:10 9 2 - 290° W
So, 19.08. 22:00 9 2 15 280° W
So, 19.08. 21:50 9 2 - 280° W
So, 19.08. 21:40 11 2 - 290° W
So, 19.08. 21:30 7 2 13 300° NW
So, 19.08. 21:00 13 3 20 310° NW
So, 19.08. 20:30 14 3 22 300° NW
So, 19.08. 20:00 13 3 31 310° NW
So, 19.08. 19:30 18 3 32 290° W
Ortszeit Untergrenze Bedeckung Gattung
total tief tief mittel hoch
So, 19.08. 20:00 2700 m 2/8 2/8 - - -
So, 19.08. 14:00 1500 m 1/8 1/8 - - -
So, 19.08. 8:00 2400 m 2/8 1/8 - - -
So, 19.08. 2:00 9000 m 8/8 0/8 - - -
Sa, 18.08. 20:00 2100 m 5/8 1/8 - - -
Sa, 18.08. 14:00 1500 m 6/8 2/8 - - -
Sa, 18.08. 8:00 1410 m 1/8 1/8 - - -
Sa, 18.08. 2:00 3300 m 3/8 1/8 - - -
Ortszeit Bedeckungsgrad in Achtel und Wolkenuntergrenze
So, 19.08. 22:30 9 9 9
So, 19.08. 22:20 9 9 9
So, 19.08. 22:10 1(2700m) 1(3300m)
So, 19.08. 22:00 1(2700m)
So, 19.08. 21:50 1(2700m)
So, 19.08. 21:40 1(2700m)
So, 19.08. 21:30 1(2700m)
So, 19.08. 21:00 keine Wolken
So, 19.08. 20:30 keine Wolken
So, 19.08. 20:00 2(2700m)
So, 19.08. 19:30 1(9000m)
Ortszeit Luftdruck NN (hPa) Tendenz (hPa in 3 Std.)
So, 19.08. 20:00 1017 - 0,3
So, 19.08. 14:00 1019 - 2,0
So, 19.08. 8:00 1023 0,0
So, 19.08. 2:00 1023 + 0,4
Sa, 18.08. 20:00 1021 + 0,5
Sa, 18.08. 14:00 1021 - 0,4
Sa, 18.08. 8:00 1023 + 0,8
Sa, 18.08. 2:00 1021 + 0,5
Ortszeit Luftdruck NN (hPa) Tendenz (hPa in 3 Std.)
So, 19.08. 22:30 1018 + 0,7
So, 19.08. 22:20 1018 keine Meldung
So, 19.08. 22:10 1018 keine Meldung
So, 19.08. 22:00 1018 + 0,5
So, 19.08. 21:50 1018 keine Meldung
So, 19.08. 21:40 1018 keine Meldung
So, 19.08. 21:30 1018 + 0,5
So, 19.08. 21:00 1018 + 0,4
So, 19.08. 20:30 1017 + 0,2
So, 19.08. 20:00 1017 - 0,3
So, 19.08. 19:30 1017 - 0,4
Ortszeit Schneehöhe (cm)
So, 19.08. 20:00 -
So, 19.08. 14:00 -
So, 19.08. 8:00 -
So, 19.08. 2:00 -
Sa, 18.08. 20:00 -
Sa, 18.08. 14:00 -
Sa, 18.08. 8:00 -
Sa, 18.08. 2:00 -
Ortszeit Schneehöhe (cm)
So, 19.08. 22:30 -
So, 19.08. 22:20 -
So, 19.08. 22:10 -
So, 19.08. 22:00 -
So, 19.08. 21:50 -
So, 19.08. 21:40 -
So, 19.08. 21:30 -
So, 19.08. 21:00 -
So, 19.08. 20:30 -
So, 19.08. 20:00 -
So, 19.08. 19:30 -
Link zu dieser Seite / Seite empfehlen

Das Wetter in ...